Вернуться в каталог

COSMOS 249 DEB

АктивенLEO
NORAD 3793·DEBRIS·🇷🇺 Russia

Запущен Oct 20, 1968 с Baikonur Cosmodrome

Loading…

Ближайшие Пролёты (ближайшие 24 часа)

TLE

СвежийSource: Space-Track

Эпоха: Sep 12, 2026, 17:48 UTC

1 03793U 68091BA  26255.74204287  .00000474  00000-0  50877-3 0  9995
2 03793  62.2189  24.4287 0609872 355.4717   4.0915 13.21794699712957

Отслеживайте COSMOS 249 DEB в реальном времени с AllMySat

Download on the App Store